Time,TemperatureF,DewpointF,PressureIn,WindDirection,WindDirectionDegrees,WindSpeedMPH,WindSpeedGustMPH,Humidity,HourlyPrecipIn,Conditions,Clouds,dailyrainin,SoftwareType,DateUTC
2013-02-18 00:00:00,4.0,0.0,-100.00,WNW,300,20.0,28.0,86,-99.99,,,-99.99,,2013-02-18 07:00:00,
2013-02-18 00:42:00,4.0,0.0,-100.00,WNW,300,20.0,28.0,86,-99.99,,,-99.99,,2013-02-18 07:42:00,
2013-02-18 00:52:00,4.0,0.0,-100.00,WNW,300,20.0,28.0,86,-99.99,,,-99.99,,2013-02-18 07:52:00,
2013-02-18 01:00:00,-2.0,-5.0,-100.00,NW,307,19.0,29.0,85,-99.99,,,-99.99,,2013-02-18 08:00:00,
2013-02-18 01:42:00,-2.0,-5.0,-100.00,NW,307,19.0,29.0,85,-99.99,,,-99.99,,2013-02-18 08:42:00,
2013-02-18 01:52:00,-2.0,-5.0,-100.00,NW,307,19.0,29.0,85,-99.99,,,-99.99,,2013-02-18 08:52:00,
2013-02-18 02:00:00,-1.0,-4.0,-100.00,NNW,328,32.0,37.0,86,-99.99,,,-99.99,,2013-02-18 09:00:00,
2013-02-18 02:42:00,-1.0,-4.0,-100.00,NNW,328,32.0,37.0,86,-99.99,,,-99.99,,2013-02-18 09:42:00,
2013-02-18 02:52:00,-1.0,-4.0,-100.00,NNW,328,32.0,37.0,86,-99.99,,,-99.99,,2013-02-18 09:52:00,
2013-02-18 03:00:00,-1.0,-9.0,-100.00,NNW,333,34.0,39.0,68,-99.99,,,-99.99,,2013-02-18 10:00:00,
2013-02-18 03:42:00,-1.0,-9.0,-100.00,NNW,333,34.0,39.0,68,-99.99,,,-99.99,,2013-02-18 10:42:00,
2013-02-18 03:52:00,-1.0,-9.0,-100.00,NNW,333,34.0,39.0,68,-99.99,,,-99.99,,2013-02-18 10:52:00,
2013-02-18 04:00:00,0.0,-15.0,-100.00,NNW,329,34.0,46.0,48,-99.99,,,-99.99,,2013-02-18 11:00:00,
2013-02-18 04:43:00,0.0,-15.0,-100.00,NNW,329,34.0,46.0,48,-99.99,,,-99.99,,2013-02-18 11:43:00,
2013-02-18 04:53:00,0.0,-15.0,-100.00,NNW,329,34.0,46.0,48,-99.99,,,-99.99,,2013-02-18 11:53:00,
2013-02-18 05:00:00,1.0,-23.0,-100.00,NNW,342,28.0,36.0,30,-99.99,,,-99.99,,2013-02-18 12:00:00,
2013-02-18 05:42:00,1.0,-23.0,-100.00,NNW,342,28.0,36.0,30,-99.99,,,-99.99,,2013-02-18 12:42:00,
2013-02-18 05:53:00,1.0,-23.0,-100.00,NNW,342,28.0,36.0,30,-99.99,,,-99.99,,2013-02-18 12:53:00,
2013-02-18 06:00:00,2.0,-30.0,-100.00,NNW,339,27.0,37.0,19,-99.99,,,-99.99,,2013-02-18 13:00:00,
2013-02-18 06:42:00,2.0,-30.0,-100.00,NNW,339,27.0,37.0,19,-99.99,,,-99.99,,2013-02-18 13:42:00,
2013-02-18 06:53:00,2.0,-30.0,-100.00,NNW,339,27.0,37.0,19,-99.99,,,-99.99,,2013-02-18 13:53:00,
2013-02-18 07:00:00,2.0,-29.0,-100.00,NNW,331,24.0,31.0,20,-99.99,,,-99.99,,2013-02-18 14:00:00,
2013-02-18 07:42:00,2.0,-29.0,-100.00,NNW,331,24.0,31.0,20,-99.99,,,-99.99,,2013-02-18 14:42:00,
2013-02-18 07:53:00,2.0,-29.0,-100.00,NNW,331,24.0,31.0,20,-99.99,,,-99.99,,2013-02-18 14:53:00,
2013-02-18 08:00:00,3.0,-30.0,-100.00,NNW,335,21.0,25.0,18,-99.99,,,-99.99,,2013-02-18 15:00:00,
2013-02-18 08:42:00,3.0,-30.0,-100.00,NNW,335,21.0,25.0,18,-99.99,,,-99.99,,2013-02-18 15:42:00,
2013-02-18 08:52:00,3.0,-30.0,-100.00,NNW,335,21.0,25.0,18,-99.99,,,-99.99,,2013-02-18 15:52:00,
2013-02-18 09:00:00,4.0,-30.0,-100.00,NNW,343,14.0,23.0,18,-99.99,,,-99.99,,2013-02-18 16:00:00,
2013-02-18 09:43:00,4.0,-30.0,-100.00,NNW,343,14.0,23.0,18,-99.99,,,-99.99,,2013-02-18 16:43:00,
2013-02-18 10:00:00,6.0,-34.0,-100.00,North,0,15.0,22.0,13,-99.99,,,-99.99,,2013-02-18 17:00:00,
2013-02-18 10:43:00,6.0,-34.0,-100.00,North,0,15.0,22.0,13,-99.99,,,-99.99,,2013-02-18 17:43:00,
2013-02-18 10:53:00,6.0,-34.0,-100.00,North,0,15.0,22.0,13,-99.99,,,-99.99,,2013-02-18 17:53:00,
2013-02-18 11:00:00,6.0,-31.0,-100.00,North,0,16.0,20.0,15,-99.99,,,-99.99,,2013-02-18 18:00:00,
2013-02-18 11:43:00,6.0,-31.0,-100.00,North,0,16.0,20.0,15,-99.99,,,-99.99,,2013-02-18 18:43:00,
2013-02-18 11:52:00,6.0,-31.0,-100.00,North,0,16.0,20.0,15,-99.99,,,-99.99,,2013-02-18 18:52:00,
2013-02-18 12:00:00,8.0,-28.0,-100.00,North,350,17.0,22.0,16,-99.99,,,-99.99,,2013-02-18 19:00:00,
2013-02-18 12:43:00,8.0,-28.0,-100.00,North,350,17.0,22.0,16,-99.99,,,-99.99,,2013-02-18 19:43:00,
2013-02-18 12:53:00,8.0,-28.0,-100.00,North,350,17.0,22.0,16,-99.99,,,-99.99,,2013-02-18 19:53:00,
2013-02-18 14:00:00,12.0,-24.0,-100.00,NNW,335,12.0,18.0,16,-99.99,,,-99.99,,2013-02-18 21:00:00,
2013-02-18 14:43:00,12.0,-24.0,-100.00,NNW,335,12.0,18.0,16,-99.99,,,-99.99,,2013-02-18 21:43:00,
2013-02-18 14:52:00,12.0,-24.0,-100.00,NNW,335,12.0,18.0,16,-99.99,,,-99.99,,2013-02-18 21:52:00,
2013-02-18 16:00:00,14.0,-10.0,-100.00,North,351,6.0,11.0,31,-99.99,,,-99.99,,2013-02-18 23:00:00,
2013-02-18 16:43:00,14.0,-10.0,-100.00,North,351,6.0,11.0,31,-99.99,,,-99.99,,2013-02-18 23:43:00,
2013-02-18 16:53:00,14.0,-10.0,-100.00,North,351,6.0,11.0,31,-99.99,,,-99.99,,2013-02-18 23:53:00,
2013-02-18 17:00:00,15.0,-36.0,-100.00,NW,318,8.0,12.0,7,-99.99,,,-99.99,,2013-02-19 00:00:00,
2013-02-18 17:44:00,15.0,-36.0,-100.00,NW,318,8.0,12.0,7,-99.99,,,-99.99,,2013-02-19 00:44:00,
2013-02-18 17:54:00,15.0,-36.0,-100.00,NW,318,8.0,12.0,7,-99.99,,,-99.99,,2013-02-19 00:54:00,
2013-02-18 18:00:00,14.0,-35.0,-100.00,West,265,7.0,10.0,8,-99.99,,,-99.99,,2013-02-19 01:00:00,
2013-02-18 18:45:00,14.0,-35.0,-100.00,West,265,7.0,10.0,8,-99.99,,,-99.99,,2013-02-19 01:45:00,
2013-02-18 18:55:00,14.0,-35.0,-100.00,West,265,7.0,10.0,8,-99.99,,,-99.99,,2013-02-19 01:55:00,
2013-02-18 19:00:00,12.0,-42.0,-100.00,WSW,255,8.0,13.0,6,-99.99,,,-99.99,,2013-02-19 02:00:00,
2013-02-18 19:43:00,12.0,-42.0,-100.00,WSW,255,8.0,13.0,6,-99.99,,,-99.99,,2013-02-19 02:43:00,
2013-02-18 19:54:00,12.0,-42.0,-100.00,WSW,255,8.0,13.0,6,-99.99,,,-99.99,,2013-02-19 02:54:00,
2013-02-18 20:00:00,13.0,-48.0,-100.00,West,273,7.0,11.0,4,-99.99,,,-99.99,,2013-02-19 03:00:00,
2013-02-18 20:45:00,13.0,-48.0,-100.00,West,273,7.0,11.0,4,-99.99,,,-99.99,,2013-02-19 03:45:00,
2013-02-18 20:54:00,13.0,-48.0,-100.00,West,273,7.0,11.0,4,-99.99,,,-99.99,,2013-02-19 03:54:00,
2013-02-18 21:00:00,14.0,-51.0,-100.00,West,261,7.0,11.0,3,-99.99,,,-99.99,,2013-02-19 04:00:00,
2013-02-18 21:44:00,14.0,-51.0,-100.00,West,261,7.0,11.0,3,-99.99,,,-99.99,,2013-02-19 04:44:00,
2013-02-18 21:54:00,14.0,-51.0,-100.00,West,261,7.0,11.0,3,-99.99,,,-99.99,,2013-02-19 04:54:00,
2013-02-18 22:00:00,16.0,-47.0,-100.00,SSW,206,11.0,14.0,3,-99.99,,,-99.99,,2013-02-19 05:00:00,
2013-02-18 22:43:00,16.0,-47.0,-100.00,SSW,206,11.0,14.0,3,-99.99,,,-99.99,,2013-02-19 05:43:00,
2013-02-18 22:52:00,16.0,-47.0,-100.00,SSW,206,11.0,14.0,3,-99.99,,,-99.99,,2013-02-19 05:52:00,
2013-02-18 23:00:00,17.0,-28.0,-100.00,South,183,12.0,17.0,11,-99.99,,,-99.99,,2013-02-19 06:00:00,
2013-02-18 23:42:00,17.0,-28.0,-100.00,South,183,12.0,17.0,11,-99.99,,,-99.99,,2013-02-19 06:42:00,
2013-02-18 23:52:00,17.0,-28.0,-100.00,South,183,12.0,17.0,11,-99.99,,,-99.99,,2013-02-19 06:52:00,